Location: Clanezzo
(45.7500°N, 9.6000°E)
Time: 01:15:43
(UTC+00:00)

Cosmos 1943 Rocket - Pass Details

Date: 12 May 2021
Orbit: 814 x 842 km, 71.0° (Epoch: 23 June)

Event Time Altitude Azimuth Distance (km) Brightness Sun altitude
Exits shadow 21:54:22 54° 174° (S) 1,006 2.2 -23.1°
Maximum altitude 21:55:33 72° 113° (ESE) 880 2.1 -23.2°
Drops below altitude 10° 22:01:07 10° 30° (NNE) 2,443 5.1 -23.6°
Sets 22:03:34 0° 28° (NNE) 3,376 5.9 -23.7°
